SCP
0 0 0 0 0 0 0 0 0 0 0 0 0 0 0 0 0 0 0 0 0 0 0 0 0 0 0 0 0 0 0 0 0 0 0 0 0 0
1 1 1 0 0 0 0 0 0 0 0 0 0 0 0 0 0 0 0 0 0 0 0 0 0 0 0 0 0 0 0 0 0 0 0 0 0 0
2 2 1 1 1 1 0 0 0 0 0 0 0 0 0 0 0 0 0 0 0 0 0 0 0 0 0 0 0 0 0 0 0 0 0 0 0 0
2 2 2 2 2 1 1 1 1 0 0 0 0 0 0 0 0 0 0 0 0 0 0 0 0 0 0 0 0 0 0 0 0 0 0 0 0 0
1 1 2 2 2 2 2 2 1 1 1 0 0 0 0 0 0 0 0 0 0 0 0 0 0 0 0 0 0 0 0 0 0 0 0 0 0 0
1 1 1 2 2 2 2 2 2 2 1 1 1 0 0 0 0 0 0 0 0 0 0 0 0 0 0 0 0 0 0 0 0 0 0 0 0 0
1 1 1 1 1 1 2 2 2 2 2 2 1 1 0 0 0 0 0 0 0 0 0 0 0 0 0 0 0 0 0 0 0 0 0 0 0 0
1 1 1 1 1 1 1 1 1 2 2 2 2 1 0 0 0 0 0 0 0 0 0 0 0 0 0 0 0 0 0 0 0 0 0 0 0 0
0 1 1 1 0 0 0 0 0 1 1 2 2 1 1 0 0 0 0 0 0 0 0 0 0 0 0 0 0 0 0 0 0 0 0 0 0 0
0 0 1 1 0 0 0 0 0 0 0 1 1 1 1 0 0 0 0 0 0 0 0 0 0 0 0 0 0 0 0 0 0 0 0 0 0 0
0 0 1 1 0 0 0 1 1 0 0 0 0 0 0 0 0 0 0 0 0 0 0 0 0 0 0 0 0 0 0 0 0 0 0 0 0 0
0 0 0 0 0 0 0 0 0 0 0 0 0 0 0 0 0 0 0 0 0 0 0 0 0 0 0 0 0 0 0 0 0 0 0 0 0 0
0 0 0 0 0 0 0 0 0 0 0 0 0 0 0 0 0 0 0 0 0 0 0 0 0 0 0 0 0 0 0 0 0 0 0 0 0 0
0 0 0 0 0 0 0 0 0 0 0 0 0 0 0 0 0 0 0 0 0 0 0 0 0 0 0 0 0 0 0 0 0 0 0 0 0 0
0 0 0 0 0 0 0 0 0 0 0 0 0 0 0 0 0 0 0 0 0 0 0 0 0 0 0 0 0 0 0 0 0 0 0 0 0 0
0 0 0 0 0 0 0 0 0 0 0 0 0 0 0 0 0 0 0 0 0 0 0 0 0 0 0 0 0 0 0 0 0 0 0 0 0 0
0 0 0 0 0 0 0 0 0 0 0 0 0 0 0 0 0 0 0 0 0 0 0 0 0 0 0 0 0 0 0 0 0 0 0 0 0 0
0 0 0 0 0 0 0 0 0 0 0 0 0 0 0 0 0 0 0 0 0 0 0 0 0 0 0 0 0 0 0 0 0 0 0 0 0 0
0 0 0 0 0 0 0 0 0 0 0 0 0 0 0 0 0 0 0 0 0 0 0 0 0 0 0 0 0 0 0 0 0 0 0 0 0 0
0 0 0 0 0 0 0 0 0 0 0 0 0 0 0 0 0 0 0 0 0 0 0 0 0 0 0 0 0 0 0 0 0 0 0 0 0 0
0 0 0 0 0 0 0 0 0 0 0 0 0 0 0 0 0 0 0 0 0 0 0 0 0 0 0 0 0 0 0 0 0 0 0 0 0 0
0 0 0 0 0 0 0 0 0 0 0 0 0 0 0 0 0 0 0 0 0 0 0 0 0 0 0 0 0 0 0 0 0 0 0 0 0 0
0 0 0 0 0 0 0 0 0 0 0 0 0 0 0 0 0 0 0 0 0 0 0 0 0 0 0 0 0 0 0 0 0 0 0 0 0 0
Wind_Speed
15 15 14 11 10 10 9 9 10 11 11 7 6 7 7 7 10 9 9 13 16 17 17 17 16 17 17 18 18 18 18 17 16 16 15 16 16 16
12 14 15 12 11 10 10 10 11 13 14 6 6 6 7 7 9 9 9 13 14 15 15 15 15 15 15 16 16 17 17 17 16 16 15 15 16 16
14 16 17 14 12 11 10 11 11 11 15 10 5 5 8 8 7 7 7 7 7 12 14 14 14 14 14 14 14 15 15 15 15 14 14 15 15 16
16 16 17 13 16 13 11 13 12 12 13 15 7 6 9 8 7 7 6 5 6 9 12 13 13 13 13 13 13 13 13 13 12 12 13 14 14 14
16 17 17 15 16 13 13 13 11 10 11 12 10 6 6 4 5 4 4 5 5 6 9 11 12 12 12 12 12 11 11 11 11 11 11 11 12 12
15 16 16 16 16 15 13 14 12 11 11 11 10 7 5 4 4 5 5 5 5 4 7 7 9 10 11 11 11 10 10 11 11 11 10 10 11 11
15 15 16 17 18 15 12 12 12 12 10 10 10 7 6 5 6 5 7 5 4 4 4 4 4 5 6 8 10 10 11 11 11 11 11 11 11 11
15 14 14 15 17 19 19 18 16 15 13 11 10 10 9 8 7 6 6 5 5 4 5 4 4 5 4 4 9 11 12 12 11 11 11 11 11 11
14 13 11 10 13 13 15 17 17 18 18 14 13 13 10 9 9 8 8 7 7 5 5 4 4 5 4 5 10 11 11 11 11 11 11 11 11 11
12 12 12 12 11 12 11 12 13 14 15 14 13 12 9 8 10 10 9 6 3 2 4 4 3 3 2 3 9 10 10 10 10 10 10 10 9 9
10 10 11 11 13 13 12 12 11 10 9 12 13 11 10 10 9 6 6 5 4 4 4 4 3 2 1 2 4 8 9 9 9 9 10 10 9 8
8 8 9 11 12 12 12 11 12 10 6 5 6 7 7 8 11 9 8 6 4 4 5 5 4 3 2 1 1 1 3 6 7 8 8 9 9 5
7 7 6 10 12 12 12 11 13 9 6 6 5 5 4 4 5 5 5 6 6 4 6 6 5 4 3 2 1 1 2 2 2 3 5 7 7 6
7 6 6 9 11 11 10 10 10 8 4 5 5 5 5 4 3 3 3 2 2 4 7 7 5 6 5 3 2 1 1 1 2 2 1 4 5 6
6 8 8 9 8 7 8 8 7 5 5 5 5 5 4 4 4 4 3 3 4 3 3 3 4 5 4 4 4 3 2 2 2 2 2 2 2 2
5 5 7 7 6 5 4 4 4 4 5 5 4 3 3 3 4 4 4 4 3 2 3 2 3 5 4 3 4 4 3 3 2 2 2 1 1 2
4 4 4 4 3 3 3 2 2 2 3 3 4 4 4 4 3 3 4 4 4 4 3 2 3 3 3 3 3 3 3 2 2 2 2 1 2 2
4 4 5 4 4 4 4 3 2 3 3 3 3 4 4 5 4 4 3 4 4 4 4 4 4 3 2 2 1 4 3 2 2 2 2 2 2 2
4 4 5 4 4 4 4 3 3 3 2 3 3 3 3 4 4 5 5 4 4 4 4 4 4 5 4 3 1 2 3 3 3 2 2 2 2 2
3 4 5 4 4 3 3 3 3 2 2 3 3 3 4 4 4 5 5 5 5 4 4 4 4 4 4 4 3 2 3 3 3 3 2 0 1 2
4 4 4 4 4 3 3 3 3 3 3 3 3 4 4 4 4 4 4 6 5 5 6 5 3 3 4 4 4 2 1 1 2 3 3 2 0 0
4 4 3 3 3 3 3 2 2 2 3 3 3 3 3 4 4 5 5 5 4 4 4 3 4 4 3 3 3 3 2 1 1 2 2 3 3 3
5 4 4 3 2 2 2 2 3 2 2 2 2 3 3 3 4 4 5 4 4 5 5 4 3 2 2 3 3 2 3 2 1 1 1 2 2 3
Wind_Direction
233 232 235 236 233 233 230 226 242 261 261 230 223 219 219 220 226 224 226 227 227 230 231 232 234 237 239 242 243 245 248 247 246 244 239 235 229 224
232 234 235 236 234 231 231 231 231 245 261 242 220 211 207 217 222 221 224 225 226 229 230 230 232 236 237 239 242 244 246 246 244 239 235 235 231 227
233 234 237 234 235 233 230 231 233 235 253 257 222 211 208 216 219 218 221 221 225 225 227 228 229 232 234 235 238 243 245 244 243 239 235 234 234 228
236 235 238 234 235 234 232 233 234 231 242 255 243 215 218 215 213 213 217 216 221 224 224 225 225 228 230 232 235 239 239 238 238 237 236 234 232 227
238 236 238 235 236 234 233 234 234 232 234 246 249 226 218 203 206 214 213 217 220 223 223 225 224 226 227 229 231 232 231 229 227 227 226 226 226 228
240 239 237 234 236 235 234 234 233 232 233 238 243 232 217 190 186 206 223 220 225 213 223 224 224 222 225 228 228 226 223 218 218 216 215 216 219 223
244 241 239 236 235 233 233 233 230 234 232 234 238 232 215 188 204 198 216 215 220 200 207 217 214 219 219 224 223 218 217 215 213 210 208 210 215 219
248 246 242 236 236 232 231 229 226 230 233 231 234 232 226 212 204 196 200 197 228 198 192 219 194 216 217 214 215 213 212 211 209 208 209 211 213 217
248 248 247 242 234 236 234 232 233 232 229 230 235 233 226 210 196 200 201 203 215 183 171 211 195 217 214 219 212 208 209 208 207 208 209 210 213 215
249 246 246 244 235 229 233 235 236 236 231 232 238 239 228 210 200 201 198 197 179 163 165 201 192 210 209 213 212 207 208 209 208 207 209 209 210 211
257 252 248 248 241 225 227 234 238 241 235 227 230 234 225 208 188 175 174 174 199 196 180 181 176 180 204 226 214 205 204 208 210 208 208 208 209 208
269 261 251 247 245 228 229 232 237 238 222 222 226 231 227 212 197 197 187 186 183 196 183 172 166 157 193 229 201 181 191 201 204 208 208 208 203 193
269 268 262 251 245 238 232 234 235 226 211 210 214 211 206 203 200 198 195 193 190 196 172 163 163 166 172 169 184 180 169 169 179 199 206 205 205 196
272 273 269 259 248 240 237 239 227 213 204 201 206 207 202 199 186 166 161 163 175 179 163 159 162 169 163 165 182 167 156 162 160 171 186 204 211 212
274 276 279 274 264 253 244 231 219 213 203 208 215 216 205 180 150 136 119 109 88 75 122 149 156 161 166 169 162 159 163 180 167 164 171 181 196 193
288 286 282 278 270 263 256 236 232 224 212 215 209 199 171 161 165 161 157 153 142 108 60 83 145 156 159 154 154 162 162 165 165 171 164 176 193 194
291 295 292 290 287 275 262 247 232 220 223 223 201 188 178 175 176 163 157 159 171 174 160 104 77 78 89 138 150 160 157 160 169 163 159 195 224 218
289 281 280 274 266 260 252 246 235 229 222 207 202 196 189 184 176 167 167 175 179 177 168 155 140 116 84 29 119 161 163 165 156 158 159 185 227 228
284 274 272 270 268 266 258 249 242 226 203 199 199 191 182 178 174 174 173 173 176 172 163 157 163 163 171 197 218 166 162 153 146 163 186 193 216 232
278 273 272 272 268 261 258 255 245 220 203 203 198 184 175 173 175 179 180 177 172 164 161 166 178 184 188 177 160 164 161 153 164 178 180 166 291 309
291 281 276 273 269 260 252 244 231 218 206 197 191 182 174 173 178 177 174 171 169 171 178 184 175 132 103 102 109 124 143 157 159 168 160 153 194 247
311 303 297 293 279 265 251 240 229 212 194 193 191 179 171 175 178 174 169 167 172 171 165 144 133 131 133 154 163 156 144 101 77 107 157 173 174 200
317 313 311 309 307 304 284 253 232 215 195 188 183 175 174 175 170 166 162 157 151 147 138 138 137 126 132 147 152 151 151 154 143 114 1 337 308 280